Radiation Dose at Monitoring Post of Fukushima Daini Nuclear Power Station
Date,Time,MP-1(microSv/h),MP-2(microSv/h),MP-3(microSv/h),MP-4(microSv/h),MP-5(microSv/h),MP-6(microSv/h),MP-7(microSv/h),Wind Direction,Wind Velocity(m/s),Rain
2018/11/27,00:00,0.274,0.192,0.305,0.296,0.281,0.155,0.096,south-southwest,4.6,No
2018/11/27,00:10,0.271,0.192,0.306,0.295,0.279,0.156,0.095,south-southwest,4.6,No
2018/11/27,00:20,0.274,0.192,0.307,0.295,0.279,0.156,0.095,south,5.6,No
2018/11/27,00:30,0.272,0.192,0.305,0.295,0.280,0.156,0.095,south-southwest,5.4,No
2018/11/27,00:40,0.273,0.191,0.306,0.294,0.280,0.156,0.095,south-southwest,5.8,No
2018/11/27,00:50,0.273,0.190,0.307,0.295,0.279,0.155,0.095,south,5.6,No
2018/11/27,01:00,0.273,0.192,0.306,0.295,0.280,0.155,0.094,south,5.7,No
2018/11/27,01:10,0.273,0.191,0.307,0.296,0.279,0.156,0.095,south,6.0,No
2018/11/27,01:20,0.274,0.192,0.307,0.296,0.279,0.156,0.096,south,6.5,No
2018/11/27,01:30,0.274,0.192,0.309,0.295,0.281,0.155,0.095,south,6.2,No
2018/11/27,01:40,0.272,0.191,0.306,0.295,0.280,0.156,0.095,south,5.9,No
2018/11/27,01:50,0.272,0.192,0.307,0.295,0.280,0.156,0.096,south-southwest,6.9,No
2018/11/27,02:00,0.273,0.191,0.306,0.295,0.279,0.156,0.094,south-southwest,6.9,No
2018/11/27,02:10,0.274,0.192,0.305,0.294,0.279,0.156,0.095,south-southwest,7.7,No
2018/11/27,02:20,0.273,0.192,0.306,0.295,0.280,0.155,0.096,south-southwest,7.0,No
2018/11/27,02:30,0.273,0.191,0.307,0.295,0.280,0.155,0.095,south-southwest,6.7,No
2018/11/27,02:40,0.274,0.192,0.305,0.295,0.280,0.156,0.095,south-southwest,6.4,No
2018/11/27,02:50,0.272,0.190,0.306,0.294,0.280,0.155,0.095,south-southwest,6.7,No
2018/11/27,03:00,0.272,0.191,0.308,0.295,0.281,0.155,0.095,south-southwest,7.6,No
2018/11/27,03:10,0.272,0.192,0.307,0.294,0.281,0.155,0.095,south-southwest,8.2,No
2018/11/27,03:20,0.272,0.191,0.307,0.294,0.280,0.155,0.094,south-southwest,7.5,No
2018/11/27,03:30,0.272,0.192,0.306,0.295,0.280,0.155,0.095,south-southwest,6.6,No
2018/11/27,03:40,0.275,0.191,0.307,0.295,0.279,0.155,0.096,south-southwest,6.5,No
2018/11/27,03:50,0.274,0.192,0.306,0.295,0.280,0.155,0.096,south-southwest,6.3,No
2018/11/27,04:00,0.273,0.191,0.306,0.294,0.281,0.155,0.096,south-southwest,6.6,No
2018/11/27,04:10,0.272,0.191,0.308,0.296,0.280,0.156,0.095,south-southwest,7.6,No
2018/11/27,04:20,0.272,0.192,0.306,0.295,0.279,0.155,0.095,south-southwest,7.1,No
2018/11/27,04:30,0.274,0.192,0.305,0.295,0.281,0.155,0.095,south-southwest,7.3,No
2018/11/27,04:40,0.273,0.190,0.305,0.295,0.279,0.156,0.095,south-southwest,6.8,No
2018/11/27,04:50,0.272,0.192,0.307,0.295,0.282,0.156,0.095,south-southwest,6.1,No
2018/11/27,05:00,0.273,0.191,0.305,0.295,0.281,0.156,0.094,south-southwest,6.3,No
2018/11/27,05:10,0.271,0.192,0.307,0.295,0.280,0.155,0.095,south-southwest,7.0,No
2018/11/27,05:20,0.272,0.190,0.306,0.296,0.280,0.155,0.094,south-southwest,7.4,No
2018/11/27,05:30,0.273,0.191,0.305,0.295,0.279,0.156,0.095,south-southwest,7.0,No
2018/11/27,05:40,0.272,0.192,0.306,0.295,0.279,0.155,0.095,south-southwest,7.0,No
2018/11/27,05:50,0.273,0.192,0.306,0.295,0.280,0.154,0.094,south-southwest,7.0,No
2018/11/27,06:00,0.274,0.192,0.305,0.295,0.280,0.155,0.094,south-southwest,6.6,No
2018/11/27,06:10,0.273,0.192,0.306,0.295,0.278,0.155,0.095,south-southwest,6.2,No
2018/11/27,06:20,0.272,0.191,0.308,0.294,0.281,0.156,0.095,south-southwest,6.2,No
2018/11/27,06:30,0.272,0.191,0.307,0.295,0.280,0.155,0.095,south-southwest,6.9,No
2018/11/27,06:40,0.273,0.191,0.305,0.294,0.280,0.154,0.095,south-southwest,7.1,No
2018/11/27,06:50,0.273,0.191,0.306,0.295,0.282,0.156,0.094,south-southwest,6.5,No
2018/11/27,07:00,0.273,0.191,0.306,0.295,0.278,0.155,0.094,south-southwest,6.3,No
2018/11/27,07:10,0.272,0.191,0.306,0.295,0.280,0.155,0.094,south-southwest,5.7,No
2018/11/27,07:20,0.273,0.192,0.306,0.293,0.280,0.155,0.095,south-southwest,4.3,No
2018/11/27,07:30,0.272,0.191,0.307,0.294,0.279,0.155,0.095,south-southwest,3.6,No
2018/11/27,07:40,0.273,0.191,0.305,0.295,0.280,0.155,0.094,south-southwest,3.7,No
2018/11/27,07:50,0.274,0.191,0.306,0.293,0.280,0.156,0.095,south-southwest,3.3,No
2018/11/27,08:00,0.272,0.190,0.306,0.294,0.279,0.155,0.096,south,4.5,No
2018/11/27,08:10,0.273,0.190,0.305,0.293,0.281,0.154,0.095,south,5.7,No
2018/11/27,08:20,0.274,0.192,0.306,0.294,0.280,0.154,0.095,south,5.2,No
2018/11/27,08:30,0.273,0.193,0.306,0.291,0.280,0.155,0.094,south-southwest,6.2,No
2018/11/27,08:40,0.273,0.192,0.305,0.293,0.279,0.155,0.095,south-southwest,6.3,No
2018/11/27,08:50,0.272,0.192,0.307,0.292,0.281,0.154,0.095,south-southwest,6.5,No
2018/11/27,09:00,0.272,0.191,0.306,0.294,0.280,0.154,0.094,south,7.1,No
2018/11/27,09:10,0.274,0.191,0.306,0.291,0.280,0.154,0.094,south,6.8,No
2018/11/27,09:20,0.272,0.191,0.306,0.295,0.279,0.154,0.094,south,7.1,No
2018/11/27,09:30,0.270,0.190,0.305,0.292,0.280,0.154,0.094,south,6.3,No
2018/11/27,09:40,0.273,0.189,0.307,0.294,0.277,0.155,0.094,south,5.8,No
2018/11/27,09:50,0.270,0.192,0.305,0.295,0.280,0.155,0.094,south,4.7,No
2018/11/27,10:00,0.272,0.188,0.305,0.293,0.277,0.154,0.095,south,6.7,No
2018/11/27,10:10,0.272,0.190,0.305,0.295,0.279,0.154,0.094,south,6.7,No
2018/11/27,10:20,0.267,0.191,0.304,0.293,0.279,0.154,0.094,south,8.1,No
2018/11/27,10:30,0.272,0.189,0.304,0.295,0.276,0.155,0.094,south,8.2,No
2018/11/27,10:40,0.271,0.190,0.306,0.295,0.277,0.155,0.094,south-southwest,9.0,No
2018/11/27,10:50,0.268,0.190,0.305,0.292,0.278,0.155,0.095,south,8.4,No
2018/11/27,11:00,0.270,0.189,0.305,0.294,0.277,0.154,0.095,south-southwest,7.0,No
2018/11/27,11:10,0.273,0.190,0.305,0.293,0.280,0.155,0.094,south,7.9,No
2018/11/27,11:20,0.270,0.191,0.306,0.291,0.281,0.155,0.093,south,6.4,No
2018/11/27,11:30,0.268,0.189,0.303,0.296,0.279,0.155,0.094,south,6.1,No
2018/11/27,11:40,0.271,0.191,0.307,0.293,0.278,0.156,0.094,south,6.0,No
2018/11/27,11:50,0.273,0.191,0.305,0.291,0.280,0.155,0.093,south,6.7,No
2018/11/27,12:00,0.271,0.190,0.301,0.294,0.282,0.156,0.093,south-southwest,6.8,No
2018/11/27,12:10,0.271,0.190,0.304,0.293,0.279,0.155,0.094,south,4.5,No
2018/11/27,12:20,0.268,0.191,0.305,0.294,0.277,0.154,0.094,south-southeast,5.2,No
2018/11/27,12:30,0.268,0.191,0.303,0.291,0.276,0.155,0.094,south-southeast,5.8,No
2018/11/27,12:40,0.273,0.189,0.306,0.294,0.279,0.155,0.093,south-southeast,7.0,No
2018/11/27,12:50,0.272,0.191,0.305,0.295,0.280,0.154,0.094,south-southeast,6.4,No
2018/11/27,13:00,0.271,0.190,0.305,0.293,0.279,0.155,0.094,south-southeast,6.0,No
2018/11/27,13:10,0.274,0.191,0.307,0.296,0.283,0.154,0.094,south-southeast,6.5,No
2018/11/27,13:20,0.272,0.191,0.303,0.294,0.280,0.156,0.094,south-southeast,6.2,No
2018/11/27,13:30,0.273,0.191,0.309,0.295,0.281,0.155,0.095,south-southeast,6.0,No
2018/11/27,13:40,0.273,0.193,0.306,0.296,0.282,0.154,0.094,south-southeast,6.3,No
2018/11/27,13:50,0.271,0.190,0.305,0.292,0.278,0.155,0.095,south-southeast,6.1,No
2018/11/27,14:00,0.274,0.191,0.307,0.297,0.281,0.155,0.094,south-southeast,5.8,No
2018/11/27,14:10,0.272,0.192,0.305,0.294,0.281,0.156,0.095,south-southeast,6.2,No
2018/11/27,14:20,0.274,0.190,0.306,0.297,0.279,0.155,0.095,south,5.9,No
2018/11/27,14:30,0.272,0.192,0.306,0.295,0.281,0.154,0.095,south,6.7,No
2018/11/27,14:40,0.274,0.191,0.307,0.295,0.279,0.155,0.094,south,6.3,No
2018/11/27,14:50,0.271,0.191,0.307,0.296,0.283,0.155,0.095,south,5.7,No
2018/11/27,15:00,0.275,0.190,0.306,0.294,0.280,0.154,0.095,south,4.8,No
2018/11/27,15:10,0.271,0.193,0.306,0.295,0.283,0.155,0.095,south-southeast,4.4,No
2018/11/27,15:20,0.275,0.191,0.306,0.294,0.279,0.155,0.094,south,5.1,No
2018/11/27,15:30,0.273,0.191,0.306,0.295,0.282,0.154,0.095,south,4.8,No
2018/11/27,15:40,0.273,0.189,0.306,0.294,0.280,0.155,0.094,south,5.1,No
2018/11/27,15:50,0.271,0.191,0.306,0.295,0.282,0.154,0.095,south-southeast,5.0,No
2018/11/27,16:00,0.274,0.191,0.306,0.294,0.280,0.155,0.094,south-southeast,3.7,No
2018/11/27,16:10,0.272,0.191,0.306,0.295,0.281,0.154,0.094,south-southeast,5.4,No
2018/11/27,16:20,0.273,0.191,0.306,0.295,0.279,0.155,0.095,south-southeast,5.1,No
2018/11/27,16:30,0.272,0.191,0.306,0.295,0.281,0.155,0.095,south-southeast,2.8,No
2018/11/27,16:40,0.273,0.193,0.306,0.296,0.280,0.155,0.094,south,4.2,No
2018/11/27,16:50,0.273,0.190,0.306,0.293,0.281,0.155,0.095,south,4.0,No
2018/11/27,17:00,0.272,0.190,0.305,0.295,0.280,0.154,0.095,south,4.3,No
2018/11/27,17:10,0.273,0.192,0.307,0.294,0.280,0.155,0.094,south,4.4,No
2018/11/27,17:20,0.273,0.191,0.306,0.295,0.281,0.155,0.095,south,3.5,No
2018/11/27,17:30,0.273,0.192,0.307,0.296,0.280,0.154,0.096,south,2.0,No
2018/11/27,17:40,0.274,0.191,0.307,0.295,0.281,0.155,0.094,south-southwest,2.4,No
2018/11/27,17:50,0.273,0.191,0.306,0.295,0.279,0.155,0.094,south-southwest,2.8,No
2018/11/27,18:00,0.274,0.192,0.307,0.295,0.281,0.156,0.095,south,2.8,No
2018/11/27,18:10,0.273,0.192,0.307,0.295,0.280,0.155,0.095,south-southwest,3.6,No
2018/11/27,18:20,0.273,0.192,0.306,0.296,0.281,0.157,0.095,southwest,3.2,No
2018/11/27,18:30,0.275,0.193,0.308,0.295,0.282,0.156,0.096,west,2.2,No
2018/11/27,18:40,0.273,0.191,0.306,0.297,0.280,0.156,0.094,west-northwest,2.6,No
2018/11/27,18:50,0.274,0.192,0.306,0.296,0.282,0.155,0.096,northwest,2.9,No
2018/11/27,19:00,0.274,0.193,0.307,0.297,0.282,0.156,0.096,north-northwest,4.0,No
2018/11/27,19:10,0.273,0.192,0.306,0.297,0.280,0.156,0.095,north,3.2,No
2018/11/27,19:20,0.275,0.192,0.307,0.295,0.282,0.157,0.095,north,2.3,No
2018/11/27,19:30,0.273,0.192,0.306,0.297,0.280,0.156,0.095,north,2.0,No
2018/11/27,19:40,0.273,0.192,0.306,0.295,0.282,0.155,0.095,northwest,2.1,No
2018/11/27,19:50,0.274,0.193,0.308,0.296,0.280,0.156,0.095,northwest,1.1,No
2018/11/27,20:00,0.272,0.192,0.307,0.297,0.280,0.156,0.096,southwest,0.9,No
2018/11/27,20:10,0.274,0.192,0.306,0.296,0.281,0.156,0.096,west-southwest,1.2,No
2018/11/27,20:20,0.274,0.192,0.308,0.297,0.281,0.156,0.096,west,2.7,No
2018/11/27,20:30,0.273,0.192,0.307,0.297,0.280,0.156,0.094,west,3.4,No
2018/11/27,20:40,0.273,0.192,0.306,0.296,0.282,0.157,0.095,west,3.3,No
2018/11/27,20:50,0.273,0.193,0.308,0.295,0.281,0.156,0.095,west-northwest,4.8,No
2018/11/27,21:00,0.272,0.192,0.307,0.296,0.281,0.155,0.095,west-northwest,6.5,No
2018/11/27,21:10,0.273,0.192,0.307,0.295,0.281,0.156,0.095,west-northwest,4.5,No
2018/11/27,21:20,0.274,0.193,0.307,0.295,0.280,0.156,0.094,west,5.0,No
2018/11/27,21:30,0.273,0.192,0.307,0.297,0.281,0.156,0.095,west,4.3,No
2018/11/27,21:40,0.273,0.193,0.307,0.296,0.280,0.156,0.095,west,4.6,No
2018/11/27,21:50,0.275,0.193,0.307,0.296,0.281,0.155,0.096,west,4.6,No
2018/11/27,22:00,0.273,0.192,0.307,0.297,0.280,0.156,0.095,west-northwest,5.4,No
2018/11/27,22:10,0.274,0.192,0.308,0.295,0.280,0.155,0.095,west-northwest,5.8,No
2018/11/27,22:20,0.273,0.192,0.309,0.295,0.282,0.156,0.095,west,6.5,No
2018/11/27,22:30,0.273,0.193,0.307,0.297,0.281,0.156,0.096,west,4.6,No
2018/11/27,22:40,0.272,0.192,0.308,0.296,0.280,0.157,0.095,west-northwest,6.2,No
2018/11/27,22:50,0.274,0.192,0.310,0.297,0.282,0.155,0.095,west,4.5,No
2018/11/27,23:00,0.272,0.192,0.305,0.297,0.280,0.156,0.094,west,3.3,No
2018/11/27,23:10,0.273,0.191,0.308,0.295,0.281,0.156,0.095,west,4.1,No
2018/11/27,23:20,0.275,0.192,0.307,0.296,0.281,0.156,0.095,west-northwest,4.3,No
2018/11/27,23:30,0.274,0.192,0.305,0.295,0.280,0.156,0.095,west,5.2,No
2018/11/27,23:40,0.273,0.192,0.307,0.295,0.281,0.156,0.095,west,5.3,No
2018/11/27,23:50,0.274,0.192,0.308,0.297,0.282,0.156,0.096,west,4.7,No
